Renton, WA
on Thursday, February 14, 2013

Thursday
Previous Day Next Day
Daily Summary
 ActualAverage (KSEA)Record (KSEA)
Temperature
Mean Temperature °F 43°F  
Max Temperature 50°F 50°F 63°F (1991)
Min Temperature 43°F 37°F 22°F (1995)
Degree Days
Heating Degree Days 18 22  
Month to date heating degree days 308  
Since 1 July heating degree days 2957  
Cooling Degree Days 0 0  
Month to date cooling degree days 0  
Year to date cooling degree days 0  
Moisture
Dew Point 43°F   
Average Humidity 87    
Maximum Humidity 97    
Minimum Humidity 74    
Precipitation
Precipitation 0.01 in 0.11 in 0.74 in (1971)
Month to date precipitation 1.82  
Year to date precipitation 7.39  
Snow
Snow 0.00 in in 4.20 in (1956)
Month to date snowfall  
Since 1 July snowfall  
Snow Depth in   
Wind
Wind Speed 4 mph   
Max Wind Speed 7 mph   
Max Gust Speed mph   
Visibility 10 miles   
Events Rain   

Key: T is trace of precipitation, MM is missing value
Source: NWS Daily Summary
Time(PST)TemperatureDew PointHumidity Pressure Visibility Wind DirectionWind SpeedGust SpeedPrecipitationEvents Conditions
12:26 AM 46.4°F 42.8°F 87% 30.51 in 10.0 miles SSE 4.6 mph - N/A   Overcast
12:53 AM 45.0°F 42.1°F 90% 30.53 in 10.0 miles SSE 4.6 mph - N/A   Overcast
1:46 AM 44.6°F 41.0°F 87% 30.52 in 10.0 miles SSE 4.6 mph - N/A   Overcast
1:53 AM 45.0°F 41.0°F 86% 30.53 in 10.0 miles SSE 4.6 mph - N/A   Overcast
2:53 AM 44.1°F 39.9°F 85% 30.53 in 10.0 miles SSE 3.5 mph - N/A   Overcast
3:11 AM 44.6°F 39.2°F 81% 30.52 in 10.0 miles SE 4.6 mph - N/A   Mostly Cloudy
3:53 AM 44.1°F 39.9°F 85% 30.52 in 10.0 miles ESE 3.5 mph - N/A   Overcast
4:53 AM 44.1°F 39.9°F 85% 30.53 in 10.0 miles SE 3.5 mph - N/A   Overcast
5:53 AM 44.1°F 41.0°F 89% 30.54 in 10.0 miles East 3.5 mph - 0.00 in Rain Light Rain
6:53 AM 43.0°F 41.0°F 93% 30.54 in 10.0 miles SE 3.5 mph - 0.01 in Rain Light Rain
7:53 AM 43.0°F 42.1°F 97% 30.55 in 8.0 miles Calm Calm - 0.00 in Rain Light Rain
8:53 AM 44.1°F 42.1°F 93% 30.56 in 10.0 miles ESE 6.9 mph - 0.00 in   Overcast
9:24 AM 44.6°F 41.0°F 87% 30.55 in 10.0 miles ESE 5.8 mph - N/A   Overcast
9:53 AM 44.1°F 42.1°F 93% 30.57 in 8.0 miles ESE 5.8 mph - N/A   Overcast
10:53 AM 46.9°F 42.1°F 83% 30.57 in 10.0 miles East 5.8 mph - N/A   Overcast
11:53 AM 48.9°F 41.0°F 74% 30.56 in 10.0 miles ESE 5.8 mph - N/A   Overcast
12:53 PM 48.9°F 41.0°F 74% 30.57 in 10.0 miles Variable 3.5 mph - N/A   Overcast
1:53 PM 48.9°F 43.0°F 80% 30.57 in 10.0 miles SE 3.5 mph - N/A   Overcast
2:53 PM 48.9°F 43.0°F 80% 30.56 in 10.0 miles SSE 4.6 mph - N/A   Overcast
3:17 PM 50.0°F 44.6°F 82% 30.54 in 10.0 miles SSE 3.5 mph - N/A   Overcast
3:24 PM 50.0°F 44.6°F 82% 30.54 in 10.0 miles SSE 4.6 mph - N/A   Overcast
3:53 PM 50.0°F 44.1°F 80% 30.56 in 10.0 miles South 3.5 mph - N/A   Overcast
4:53 PM 48.9°F 45.0°F 86% 30.56 in 10.0 miles Calm Calm - N/A   Overcast
5:53 PM 48.0°F 45.0°F 89% 30.56 in 10.0 miles NW 4.6 mph - N/A   Overcast
6:53 PM 46.9°F 45.0°F 93% 30.57 in 10.0 miles WNW 3.5 mph - N/A   Overcast
7:53 PM 46.9°F 45.0°F 93% 30.57 in 10.0 miles NW 4.6 mph - N/A   Overcast
8:53 PM 46.9°F 45.0°F 93% 30.57 in 9.0 miles WNW 3.5 mph - N/A   Overcast
9:53 PM 46.9°F 45.0°F 93% 30.56 in 9.0 miles NW 3.5 mph - N/A   Overcast
10:53 PM 46.9°F 44.1°F 90% 30.56 in 10.0 miles WNW 5.8 mph - N/A   Overcast
11:53 PM 46.0°F 44.1°F 93% 30.56 in 10.0 miles NNW 4.6 mph - N/A   Overcast
Moon Phase
Feb. 14 Feb. 17 Feb. 25 Mar. 04 Mar. 11
Sunrise:07:15 AM (PST) Moon Rise:08:56 AM (PST)2/14
Sunset:05:31 PM (PST) Moon Set:11:06 PM (PST)2/14

Copyright © 2014 The Weather Underground, Inc.